Location: Angreau
(50.3515°N, 3.6911°E)
Time: 21:32:40
(UTC+00:00)

Daily predictions for brighter satellites

Satellite Brightness Start Highest point End
(mag) Time Altitude Azimuth Time Altitude Azimuth Time Altitude Azimuth
Cosmos 2123 Rocket 4.2 17:15:47 10° SSE 17:21:56 56° E 17:28:04 10° NNE
Okean 1 Rocket 4.0 17:21:46 10° N 17:25:29 26° ENE 17:29:09 10° SE
COSMOS 2428 2.9 17:21:48 10° NNW 17:27:26 54° NE 17:33:02 10° SE
SMAP 4.1 17:26:12 10° S 17:30:45 53° W 17:35:20 10° NNW
Cosmos 1980 4.5 17:25:53 10° NNW 17:30:58 32° NE 17:35:59 10° ESE
Sich 1 Rocket 4.5 17:27:36 10° N 17:31:35 29° ENE 17:35:32 10° SE
ARIANE 5 R/B 2.7 17:28:05 10° SSE 17:33:13 81° WSW 17:38:19 10° NNW
Cosmos 2237 Rocket 2.9 17:31:29 10° NNW 17:36:36 33° NE 17:41:40 10° ESE
Cosmos 2322 Rocket 4.3 17:31:43 10° NW 17:36:40 32° WSW 17:41:34 10° SSW
Aureole 3 Rocket 4.0 17:33:19 10° N 17:36:53 23° ENE 17:39:47 10° ESE
Cosmos 158 Rocket 4.2 17:32:26 10° S 17:37:00 43° ESE 17:41:36 10° NE
ATLAS 5 CENTAUR R/B 2.0 17:34:02 10° NW 17:38:12 70° SW 17:43:24 10° SSE
Cosmos 192 4.4 17:33:47 10° NNW 17:38:36 54° ENE 17:43:22 10° SE
Meteor 1-28 Rocket 4.5 17:35:59 10° N 17:39:05 37° WNW 17:42:09 10° SW
Cosmos 1378 Rocket 3.6 17:36:11 10° S 17:40:23 52° E 17:44:34 10° NNE
SeaSat 1 2.8 17:35:31 10° SSE 17:40:23 71° WSW 17:45:18 10° NNW
USA 234 4.3 17:35:26 10° SSE 17:41:44 49° SW 17:48:05 10° WNW
Resurs 01 Rocket 2.5 17:38:04 10° ESE 17:41:48 28° ENE 17:45:33 10° N
SKYMED 2 3.8 17:38:40 10° NNE 17:42:56 51° E 17:47:10 10° S
Cosmos 1459 Rocket 4.3 17:36:51 10° NNW 17:43:02 74° W 17:49:18 10° S
GP-B 3.0 17:40:06 10° S 17:44:27 75° E 17:48:49 10° N
Cosmos 2219 Rocket 3.4 17:41:08 10° NW 17:46:29 47° WSW 17:51:47 10° S
COSMO-SKYMED 1 3.1 17:43:26 10° NNE 17:47:11 33° E 17:50:54 10° SSE
Cosmos 2292 Rocket 2.5 17:46:56 10° S 17:49:49 90° SW 17:52:52 10° N
CZ-4 R/B 4.3 17:46:40 10° SSE 17:50:39 89° W 17:54:39 10° NNW
PSLV R/B 3.8 17:47:39 10° SE 17:51:33 42° ENE 17:55:26 10° N
NOSS 3-3 (A) 4.2 17:46:55 10° S 17:51:42 40° ESE 17:57:18 10° NE
Cosmos 2322 3.7 17:46:00 10° NNW 17:51:45 85° ENE 17:57:29 10° SSE
USA 306 1.3 17:50:28 10° WNW 17:53:32 89° NE 17:55:02 17° ESE
IRS-P3 4.3 17:48:36 10° SSE 17:53:55 78° WSW 17:59:17 10° NNW
Cosmos 2016 Rocket 4.0 17:47:47 10° N 17:54:03 89° E 18:00:21 10° S
Resurs 1-3 3.5 17:50:57 10° SSE 17:55:13 74° ENE 17:59:32 10° N
Cosmos 1802 Rocket 4.3 17:51:00 10° NNW 17:57:24 76° W 18:03:48 10° S
Cosmos 2285 Rocket 4.2 17:52:21 10° NNW 17:58:40 53° ENE 18:04:54 10° SE
Cosmos 1025 Rocket 3.3 17:54:37 10° SSE 17:58:42 45° E 18:02:51 10° NNE
Cosmos 2242 Rocket 3.8 17:54:30 10° SSW 17:58:53 74° WNW 18:03:16 10° N
SJ-7 4.2 17:55:41 10° SSE 17:59:17 54° ENE 18:02:54 10° N
SL-16 R/B 3.6 17:55:35 10° N 17:59:40 20° NE 18:02:26 14° ENE
SPOT 1/Viking Rocket 4.1 17:59:05 10° S 18:04:09 64° WSW 18:09:16 10° NNW
Cosmos 2227 Rocket 3.9 18:01:59 10° ESE 18:03:35 13° ESE 18:03:35 13° ESE
SJ-6B 3.3 18:05:31 10° SE 18:08:31 28° ENE 18:11:30 10° N
NOSS 3-4 (A) 4.0 18:02:24 10° NW 18:08:39 51° NE 18:15:10 13° ESE
NOSS 3-4 (C) 4.0 18:02:38 10° NW 18:08:56 51° NE 18:15:23 14° ESE
Cosmos 2233 Rocket 4.0 18:03:43 10° N 18:10:01 88° E 18:16:20 10° S
SPOT 5 4.1 18:08:21 17° E 18:10:36 23° ENE 18:14:30 10° N
CZ-2D R/B 3.3 18:09:12 10° SSE 18:13:06 87° WSW 18:17:06 10° NNW
Cosmos 1674 Rocket 3.5 18:10:30 10° S 18:14:52 82° E 18:19:19 10° NNE
Cosmos 1315 Rocket 3.3 18:12:17 10° NNW 18:16:02 58° W 18:19:45 10° S
Meteor 1-11 4.2 18:12:39 10° S 18:18:16 89° W 18:24:02 10° NNE
Cosmos 1867 3.8 18:17:09 10° SW 18:22:35 73° NW 18:27:56 11° NE
SL-16 R/B 4.5 18:18:51 10° N 18:23:55 27° NW 18:28:59 10° WSW
ATLAS 2AS CENTAUR R/B 3.9 18:18:53 10° W 18:25:08 34° NNW 18:31:15 10° NE
Cosmos 2061 Rocket 4.1 18:18:47 10° N 18:25:13 84° W 18:31:32 10° S
Cosmos 724 4.4 18:19:06 10° SW 18:25:17 85° NW 18:31:22 10° NE
Lacrosse 5 rocket 1.3 18:23:01 10° WSW 18:26:29 58° NNW 18:28:21 25° NE
CZ-4 R/B 3.1 18:28:09 15° NNE 18:28:09 15° NNE 18:29:17 10° NNE
CZ-4B R/B 4.4 18:26:45 20° ENE 18:27:09 20° NE 18:30:56 10° N
Cosmos 2151 Rocket 4.4 18:26:32 10° NNW 18:30:56 54° W 18:35:18 10° S
Meteor 2-1 Rocket 4.4 18:25:16 10° NNW 18:31:03 79° W 18:36:56 10° S
Meteor 1-31 Rocket 4.0 18:32:59 22° NNE 18:32:59 22° NNE 18:34:46 10° N
CZ-4C R/B 1.7 18:27:49 10° SW 18:32:04 81° SE 18:36:09 18° NE
Radarsat Rocket 4.3 18:29:19 10° S 18:35:09 71° WSW 18:41:24 10° NNW
IRAS Rocket 4.2 18:29:36 10° SSE 18:35:10 71° ENE 18:40:48 10° NNW
CARTOSAT-1 3.6 18:30:59 10° S 18:35:12 76° WSW 18:39:26 10° NNW
CRYOSAT 2 4.3 18:32:32 10° N 18:37:23 60° E 18:42:12 10° S
NOSS 0 Rocket 4.2 18:31:18 10° NW 18:37:32 70° WSW 18:43:43 10° SSE
USA 290 3.7 18:37:03 10° SW 18:40:03 36° WNW 18:43:01 10° N
Cosmos 1464 Rocket 4.1 18:39:21 10° N 18:45:37 54° ENE 18:51:47 10° SSE
USA 267 3.6 18:41:48 20° ENE 18:46:18 57° NNW 18:52:41 10° W
CSL-04 Debris 4.5 18:44:38 26° ESE 18:47:18 44° ENE 18:52:26 10° N
ERS-1 Rocket 4.2 18:48:49 23° NE 18:48:49 23° NE 18:51:54 10° N
Cosmos 2297 Rocket 2.2 18:42:58 10° S 18:48:31 60° ESE 18:52:37 18° NE
Cosmos 1607 4.0 18:42:48 10° SW 18:48:56 75° NW 18:54:10 15° NE
Cosmos 1570 Rocket 4.1 18:44:29 10° S 18:49:35 52° ESE 18:52:48 22° NE
BREEZE-M DEB (TANK) 4.2 18:46:20 10° W 18:50:01 63° SSW 18:56:52 20° ESE
CSL-04 Rocket 3.8 18:47:26 25° SE 18:50:13 48° ENE 18:55:16 10° N
Cosmos 2344 4.2 18:44:23 10° SSE 18:50:46 27° ESE 18:51:12 27° ESE
Cosmos 1455 Rocket 2.9 18:46:59 10° N 18:51:19 85° E 18:55:36 10° S
Cosmos 1975 Rocket 4.2 18:48:29 10° SSE 18:50:38 26° SE 18:50:38 26° SE
DNEPR-1 R/B 4.1 18:48:03 10° NW 18:52:41 52° NE 18:54:13 39° E
Cosmos 1125 Rocket 4.0 18:49:07 10° NNW 18:54:13 59° WSW 18:59:19 10° S
Cosmos 2221 Rocket 4.1 18:53:03 10° SSW 18:57:28 62° WNW 19:01:57 10° N
Meteor 1-27 4.3 18:56:25 10° NNW 19:02:13 86° W 19:08:01 10° S
PAYLOAD B 4.5 19:05:27 43° E 19:06:12 46° ENE 19:11:32 10° N
Cosmos 2208 Rocket 4.1 19:01:43 10° S 19:06:47 52° ESE 19:07:29 49° E
Terra 3.4 19:11:53 21° NNE 19:11:53 21° NNE 19:13:49 10° N
NOSS 3-3 (C) 3.8 19:07:54 10° SW 19:13:14 78° NW 19:16:44 27° NE
CZ-4B R/B 3.7 19:14:51 81° N 19:14:51 81° N 19:18:38 10° NNW
Cosmos 1980 4.2 19:09:47 10° NW 19:15:21 58° WSW 19:20:52 10° S
Meteor 2-17 Rocket 4.3 19:09:33 10° S 19:15:37 82° E 19:21:42 10° NNE
Resurs 01 Rocket 3.0 19:13:56 10° SSW 19:18:02 39° W 19:22:11 10° NNW
Cosmos 2237 Rocket 2.8 19:15:24 10° NW 19:20:58 57° WSW 19:25:52 13° S
ARIANE 6 FM1 Upper Stage 4.0 19:17:43 10° NW 19:20:14 28° N 19:20:14 28° N
COSMO-SKYMED 1 4.4 19:18:50 10° N 19:22:23 29° WNW 19:25:56 10° SW
Cosmos 44 Rocket 4.0 19:17:52 10° SSW 19:21:21 41° SSE 19:21:21 41° SSE
Cosmos 773 Rocket 3.8 19:18:50 10° SSW 19:24:05 76° ESE 19:25:06 57° NE
Cosmos 2228 3.0 19:21:23 10° NNW 19:25:33 75° W 19:25:36 75° WSW
Orbus 7S? 3.9 19:20:19 10° WNW 19:28:22 72° SW 19:28:58 63° S
Cosmos 2150 Rocket 4.0 19:27:41 10° NNW 19:32:52 76° WSW 19:33:58 55° S
Cosmos 2298 Rocket 4.0 19:28:18 10° NNW 19:33:37 79° WSW 19:34:42 57° S
NOSS 3-3 (A) 4.4 19:37:04 10° WSW 19:42:21 52° NW 19:45:02 31° NNE
SL-16 R/B 2.2 19:39:07 10° NNW 19:44:20 69° NNE 19:44:20 69° NNE
Cosmos 2227 Rocket 2.8 19:41:48 10° SSW 19:45:30 42° S 19:45:30 42° S
SPOT 5 3.3 19:47:23 54° SW 19:48:06 61° W 19:53:06 10° NNW
MOS 1 4.2 19:49:14 72° NNE 19:49:14 72° NNE 19:54:26 10° NNW
Okean O Rocket 4.3 20:02:07 11° N 20:02:07 11° N 20:02:18 10° N
NOSS 3-4 (A) 4.3 19:53:11 10° NW 19:59:46 56° SW 20:02:39 37° S
NOSS 3-4 (C) 4.3 19:53:26 10° NW 20:00:03 56° SW 20:02:53 37° S
CZ-4 R/B 3.9 20:03:09 16° NNW 20:03:09 16° NNW 20:03:59 10° NNW
Cosmos 2034 Rocket 4.1 19:55:07 10° NNW 20:01:16 70° W 20:02:53 49° SSW
Lacrosse 5 rocket 3.8 20:00:41 10° WNW 20:01:48 17° NW 20:01:48 17° NW
CZ-4B R/B 3.8 20:08:36 49° NNW 20:08:36 49° NNW 20:12:29 10° NNW
BREEZE-M DEB (TANK) 3.9 19:54:56 10° W 20:10:43 64° S 20:10:46 64° S
ADEOS 4.4 20:12:43 45° NW 20:12:43 45° NW 20:16:22 10° NNW
Cosmos 1634 Rocket 4.4 20:05:14 10° N 20:10:07 56° N 20:10:07 56° N
ATLAS 2AS CENTAUR R/B 4.0 20:12:18 10° NW 20:17:59 27° N 20:18:40 26° NNE
CZ-4C R/B 3.5 20:16:40 10° W 20:20:58 31° NNW 20:21:07 31° NNW
USA 267 3.7 20:29:08 51° N 20:29:08 51° N 20:35:06 10° WNW
Cosmos 2297 Rocket 3.8 20:27:53 10° WSW 20:32:54 31° NW 20:34:29 27° NNW
Terra 4.3 20:50:29 17° NNW 20:50:29 17° NNW 20:51:37 10° NNW
Cosmos 2344 4.4 20:56:46 10° SW 21:01:17 38° WSW 21:01:17 38° WSW
